Weather History for KSOW - August, 2013

Change the Weather History Date:

Friday, August 30, 2013

  Actual Average Record
Temperature  
Mean Temperature 64 °F -  
Max Temperature 71 °F 78 °F 90 °F (1970)
Min Temperature 57 °F 59 °F 49 °F (1973)
Degree Days  
Heating Degree Days 1    
Growing Degree Days 14 (Base 50)    
Moisture  
Dew Point 57 °F    
Average Humidity 86    
Maximum Humidity 100    
Minimum Humidity 57    
Precipitation  
Precipitation 0.12 in - - ()
Sea Level Pressure  
Sea Level Pressure 30.34 in    
Wind  
Wind Speed 7 mph (South)    
Max Wind Speed 15 mph    
Max Gust Speed 17 mph    
Visibility 10 miles    
Events Rain , Thunderstorm    
Averages and records for this station are not official NWS values.
T = Trace of Precipitation, MM = Missing Value Source: NWS Daily Summary

Daily Weather History Graph

Daily Weather History Graph

Search for Another Location

Airport or City:

Trip Planner

Search our weather history database for the weather conditions in past years. The results will help you decide how hot, cold, wet, or windy it might be!

Date:

Astronomy

Aug. 30, 2013 Rise Set
Actual Time 5:52 AM MST 6:48 PM MST
Civil Twilight 5:26 AM MST 7:13 PM MST
Nautical Twilight 4:56 AM MST 7:44 PM MST
Astronomical Twilight 4:24 AM MST 8:15 PM MST
Moon 12:41 AM MST (8/30) 2:58 PM MST (8/30)
Length of Visible Light 13h 47m
Length of Day
12h 56m
Waning Crescent, 28% of the Moon is Illuminated
Aug 30
Waning Crescent
Sep 5
New
Sep 12
First Quarter
Sep 19
Full
Sep 26
Last Quarter

Hourly Weather History & Observations

Time (MST) Temp. Dew Point Humidity Pressure Visibility Wind Dir Wind Speed Gust Speed Precip Events Conditions
12:15 AM 57.2 °F 57.2 °F 100% 30.37 in 10.0 mi SSW 12.7 mph - 0.01 in Rain Light Rain
12:35 AM 59.0 °F 57.2 °F 94% 30.37 in 10.0 mi South 10.4 mph - 0.01 in Rain Light Rain
12:55 AM 57.2 °F 57.2 °F 100% 30.37 in 10.0 mi South 11.5 mph - 0.02 in Rain Light Rain
1:15 AM 57.2 °F 57.2 °F 100% 30.37 in 8.0 mi South 15.0 mph - N/A Rain Light Rain
1:35 AM 57.2 °F 57.2 °F 100% 30.36 in 10.0 mi South 12.7 mph - N/A Rain Light Rain
1:55 AM 57.2 °F 57.2 °F 100% 30.35 in 10.0 mi South 11.5 mph - N/A Rain Light Rain
2:15 AM 59.0 °F 57.2 °F 94% 30.35 in 10.0 mi South 10.4 mph - N/A   Mostly Cloudy
2:35 AM 59.0 °F 57.2 °F 94% 30.35 in 10.0 mi South 10.4 mph - N/A   Partly Cloudy
2:55 AM 59.0 °F 57.2 °F 94% 30.34 in 10.0 mi South 9.2 mph - N/A   Partly Cloudy
3:15 AM 59.0 °F 55.4 °F 88% 30.34 in 10.0 mi Calm Calm - N/A   Partly Cloudy
3:35 AM 57.2 °F 55.4 °F 94% 30.34 in 10.0 mi Calm Calm - N/A   Partly Cloudy
3:55 AM 57.2 °F 55.4 °F 94% 30.34 in 10.0 mi Calm Calm - N/A   Mostly Cloudy
4:15 AM 57.2 °F 55.4 °F 94% 30.34 in 10.0 mi Calm Calm - N/A   Overcast
4:35 AM 57.2 °F 57.2 °F 100% 30.34 in 10.0 mi Calm Calm - N/A   Overcast
4:55 AM 57.2 °F 57.2 °F 100% 30.34 in 10.0 mi Calm Calm - N/A   Overcast
5:15 AM 57.2 °F 57.2 °F 100% 30.35 in 10.0 mi Calm Calm - N/A   Overcast
5:35 AM 57.2 °F 57.2 °F 100% 30.35 in 10.0 mi WSW 4.6 mph - N/A   Overcast
5:55 AM 57.2 °F 57.2 °F 100% 30.35 in 10.0 mi SW 5.8 mph - N/A   Mostly Cloudy
7:15 AM 59.0 °F 57.2 °F 94% 30.37 in 10.0 mi Calm Calm - N/A   Overcast
7:35 AM 59.0 °F 55.4 °F 88% 30.38 in 10.0 mi Calm Calm - N/A   Overcast
7:55 AM 60.8 °F 57.2 °F 88% 30.38 in 10.0 mi Calm Calm - N/A   Scattered Clouds
8:15 AM 62.6 °F 57.2 °F 82% 30.38 in 10.0 mi Calm Calm - N/A   Partly Cloudy
8:35 AM 62.6 °F 57.2 °F 82% 30.38 in 10.0 mi Calm Calm - N/A   Mostly Cloudy
8:55 AM 64.4 °F 57.2 °F 77% 30.38 in 10.0 mi Calm Calm - N/A   Mostly Cloudy
9:15 AM 64.4 °F 57.2 °F 77% 30.38 in 10.0 mi Calm Calm - N/A   Mostly Cloudy
9:35 AM 66.2 °F 55.4 °F 68% 30.38 in 10.0 mi Calm Calm - N/A   Scattered Clouds
9:55 AM 68.0 °F 55.4 °F 64% 30.38 in 10.0 mi SSW 3.5 mph - N/A   Mostly Cloudy
10:15 AM 68.0 °F 55.4 °F 64% 30.38 in 10.0 mi SSW 3.5 mph - N/A   Partly Cloudy
10:35 AM 69.8 °F 57.2 °F 64% 30.37 in 10.0 mi Calm Calm - N/A   Clear
10:55 AM 71.6 °F 55.4 °F 57% 30.37 in 10.0 mi NNW 3.5 mph - N/A   Partly Cloudy
11:15 AM 71.6 °F 55.4 °F 57% 30.36 in 10.0 mi WNW 5.8 mph - N/A   Clear
11:35 AM 71.6 °F 57.2 °F 60% 30.36 in 10.0 mi North 3.5 mph - N/A   Clear
11:55 AM 71.6 °F 57.2 °F 60% 30.36 in 10.0 mi Calm Calm - N/A   Mostly Cloudy
12:15 PM 71.6 °F 57.2 °F 60% 30.35 in 10.0 mi Calm Calm - N/A   Mostly Cloudy
12:35 PM 69.8 °F 59.0 °F 68% 30.35 in 10.0 mi ENE 13.8 mph 17.3 mph N/A   Overcast
12:55 PM 66.2 °F 59.0 °F 78% 30.35 in 10.0 mi ENE 9.2 mph - 0.04 in Rain Light Rain
1:15 PM 62.6 °F 57.2 °F 82% 30.34 in 10.0 mi ENE 8.1 mph - 0.01 in   Overcast
1:35 PM 64.4 °F 59.0 °F 83% 30.33 in 10.0 mi East 6.9 mph - 0.01 in   Mostly Cloudy
1:55 PM 66.2 °F 60.8 °F 83% 30.32 in 10.0 mi ENE 5.8 mph - 0.01 in   Partly Cloudy
2:55 PM 68.0 °F 59.0 °F 73% 30.30 in 10.0 mi East 3.5 mph - N/A Thunderstorm Scattered Clouds
3:15 PM 68.0 °F 62.6 °F 83% 30.30 in 10.0 mi ESE 5.8 mph - N/A   Scattered Clouds
3:35 PM 68.0 °F 59.0 °F 73% 30.30 in 10.0 mi SSE 5.8 mph - N/A Thunderstorm Partly Cloudy
3:55 PM 66.2 °F 57.2 °F 73% 30.30 in 7.0 mi South 11.5 mph - N/A Rain , Thunderstorm Light Thunderstorms and Rain
4:15 PM 62.6 °F 59.0 °F 88% 30.30 in 7.0 mi SW 8.1 mph - 0.01 in Rain , Thunderstorm Light Thunderstorms and Rain
4:35 PM 62.6 °F 59.0 °F 88% 30.30 in 7.0 mi West 9.2 mph - 0.02 in Rain Light Rain
5:15 PM 62.6 °F 59.0 °F 88% 30.30 in 6.0 mi SSW 3.5 mph - 0.01 in Rain Light Rain
5:35 PM 62.6 °F 59.0 °F 88% 30.29 in 8.0 mi SSW 6.9 mph - 0.03 in Rain Light Rain
5:55 PM 60.8 °F 59.0 °F 94% 30.30 in 10.0 mi South 11.5 mph - 0.03 in   Partly Cloudy
6:15 PM 62.6 °F 59.0 °F 88% 30.30 in 10.0 mi South 9.2 mph - N/A   Scattered Clouds
6:35 PM 60.8 °F 57.2 °F 88% 30.30 in 10.0 mi South 9.2 mph - N/A   Partly Cloudy
6:55 PM 60.8 °F 59.0 °F 94% 30.31 in 10.0 mi South 10.4 mph - N/A   Partly Cloudy
7:15 PM 60.8 °F 57.2 °F 88% 30.31 in 10.0 mi South 11.5 mph - N/A   Mostly Cloudy
7:35 PM 60.8 °F 57.2 °F 88% 30.31 in 10.0 mi SSW 6.9 mph - N/A   Overcast
7:55 PM 60.8 °F 57.2 °F 88% 30.31 in 10.0 mi South 9.2 mph - N/A   Mostly Cloudy
8:15 PM 60.8 °F 57.2 °F 88% 30.32 in 10.0 mi South 9.2 mph - N/A   Overcast
8:35 PM 60.8 °F 57.2 °F 88% 30.33 in 10.0 mi SSW 11.5 mph - N/A   Scattered Clouds
8:55 PM 59.0 °F 57.2 °F 94% 30.34 in 10.0 mi SSW 8.1 mph - N/A   Clear
9:15 PM 59.0 °F 57.2 °F 94% 30.34 in 10.0 mi South 8.1 mph - N/A   Clear
9:35 PM 59.0 °F 57.2 °F 94% 30.34 in 10.0 mi SSW 6.9 mph - N/A   Partly Cloudy
9:55 PM 59.0 °F 55.4 °F 88% 30.33 in 10.0 mi South 8.1 mph - N/A   Partly Cloudy
10:15 PM 59.0 °F 55.4 °F 88% 30.33 in 10.0 mi South 5.8 mph - N/A   Mostly Cloudy
10:35 PM 59.0 °F 55.4 °F 88% 30.33 in 10.0 mi South 8.1 mph - N/A   Overcast
10:55 PM 59.0 °F 55.4 °F 88% 30.32 in 10.0 mi South 8.1 mph - N/A   Mostly Cloudy
11:15 PM 59.0 °F 55.4 °F 88% 30.32 in 10.0 mi South 9.2 mph - N/A   Mostly Cloudy
11:35 PM 59.0 °F 55.4 °F 88% 30.32 in 10.0 mi South 6.9 mph - N/A   Partly Cloudy
11:55 PM 59.0 °F 57.2 °F 94% 30.32 in 10.0 mi South 8.1 mph - N/A   Partly Cloudy